CZ-2F R/B

Last updated on Tue Mar 10 2026 00:02:05 GMT+0000 (Coordinated Universal Time)

1 67690U 26024B 26068.44245686 .00020008 00000+0 36547-3 0 9990 2 67690 49.9895 15.8391 0174456 273.8331 84.2699 15.34326289 4651

Satellite not in orbit